contact:dominique.lefevre@mio.osupytheas.fr, maurice.libes@osupytheas.fr, didier.mallarino@osupytheas.fr
Project:EMSO http://www.emso-fr.org/EMSO-France
Depth: 2436.0 m
Title:EMSO Ligure Ouest : Data MII capteur MICROCAT
DateTime_Computer,Latitude,Longitude,Temperature,Conductivity,Pressure,DateTime_Instrument
DateTime_Computer,Latitude,Longitude,degC,S m-1,dbar,DateTime_Instrument
2020-01-24T00:00:52Z,42.805,6.029,13.2972,4.60018,2469.867,2020-1-24T02:01:25Z
2020-01-24T00:03:55Z,42.805,6.029,13.2984,4.60001,2469.876,2020-1-24T02:04:29Z
2020-01-24T00:06:59Z,42.805,6.029,13.2973,4.60016,2469.867,2020-1-24T02:07:32Z
2020-01-24T00:10:02Z,42.805,6.029,13.2984,4.60019,2469.876,2020-1-24T02:10:35Z
2020-01-24T00:13:05Z,42.805,6.029,13.2979,4.60025,2469.89,2020-1-24T02:13:38Z
2020-01-24T00:16:08Z,42.805,6.029,13.2979,4.59988,2469.89,2020-1-24T02:16:41Z
2020-01-24T00:19:11Z,42.805,6.029,13.2985,4.60001,2469.914,2020-1-24T02:19:45Z
2020-01-24T00:22:15Z,42.805,6.029,13.2972,4.59997,2469.876,2020-1-24T02:22:48Z
2020-01-24T00:25:18Z,42.805,6.029,13.2979,4.59991,2469.89,2020-1-24T02:25:51Z
2020-01-24T00:28:21Z,42.805,6.029,13.2982,4.60011,2469.914,2020-1-24T02:28:54Z
2020-01-24T00:31:24Z,42.805,6.029,13.2986,4.59986,2469.853,2020-1-24T02:31:57Z
2020-01-24T00:34:27Z,42.805,6.029,13.2981,4.59991,2469.876,2020-1-24T02:35:01Z
2020-01-24T00:37:31Z,42.805,6.029,13.2987,4.60026,2469.853,2020-1-24T02:38:04Z
2020-01-24T00:40:34Z,42.805,6.029,13.2996,4.60033,2469.867,2020-1-24T02:41:07Z
2020-01-24T00:43:37Z,42.805,6.029,13.2993,4.60032,2469.9,2020-1-24T02:44:10Z
2020-01-24T00:46:40Z,42.805,6.029,13.2998,4.60011,2469.914,2020-1-24T02:47:13Z
2020-01-24T00:49:43Z,42.805,6.029,13.3005,4.60038,2469.853,2020-1-24T02:50:17Z
2020-01-24T00:52:47Z,42.805,6.029,13.2995,4.60039,2469.9,2020-1-24T02:53:20Z
2020-01-24T00:55:50Z,42.805,6.029,13.3002,4.60037,2469.867,2020-1-24T02:56:23Z
2020-01-24T00:58:53Z,42.805,6.029,13.2991,4.60109,2469.867,2020-1-24T02:59:26Z
2020-01-24T01:01:56Z,42.805,6.029,13.2989,4.60031,2469.876,2020-1-24T03:02:29Z
2020-01-24T01:04:59Z,42.805,6.029,13.2985,4.60026,2469.867,2020-1-24T03:05:32Z
2020-01-24T01:08:03Z,42.805,6.029,13.3012,4.60049,2469.844,2020-1-24T03:08:36Z
2020-01-24T01:11:06Z,42.805,6.029,13.3000,4.60048,2469.867,2020-1-24T03:11:39Z
2020-01-24T01:14:09Z,42.805,6.029,13.2997,4.60046,2469.876,2020-1-24T03:14:42Z
2020-01-24T01:17:12Z,42.805,6.029,13.2987,4.60059,2469.83,2020-1-24T03:17:45Z
2020-01-24T01:20:15Z,42.805,6.029,13.3004,4.60045,2469.89,2020-1-24T03:20:48Z
2020-01-24T01:23:18Z,42.805,6.029,13.3010,4.60049,2469.89,2020-1-24T03:23:52Z
2020-01-24T01:26:22Z,42.805,6.029,13.2998,4.60051,2469.89,2020-1-24T03:26:55Z
2020-01-24T01:29:25Z,42.805,6.029,13.2983,4.60020,2469.876,2020-1-24T03:29:58Z
2020-01-24T01:32:28Z,42.805,6.029,13.3011,4.60064,2469.853,2020-1-24T03:33:01Z
2020-01-24T01:35:31Z,42.805,6.029,13.2994,4.60039,2469.89,2020-1-24T03:36:04Z
2020-01-24T01:38:35Z,42.805,6.029,13.2983,4.60031,2469.876,2020-1-24T03:39:08Z
2020-01-24T01:41:38Z,42.805,6.029,13.3011,4.60053,2469.867,2020-1-24T03:42:11Z
2020-01-24T01:44:41Z,42.805,6.029,13.3021,4.60064,2469.867,2020-1-24T03:45:14Z
2020-01-24T01:47:44Z,42.805,6.029,13.3045,4.60084,2469.867,2020-1-24T03:48:17Z
2020-01-24T01:50:47Z,42.805,6.029,13.3034,4.60069,2469.89,2020-1-24T03:51:20Z
2020-01-24T01:53:50Z,42.805,6.029,13.3017,4.60072,2469.853,2020-1-24T03:54:24Z
2020-01-24T01:56:54Z,42.805,6.029,13.3030,4.60034,2469.914,2020-1-24T03:57:27Z
2020-01-24T01:59:57Z,42.805,6.029,13.3032,4.60041,2469.853,2020-1-24T04:00:30Z
2020-01-24T02:03:00Z,42.805,6.029,13.3037,4.60051,2469.853,2020-1-24T04:03:33Z
2020-01-24T02:06:03Z,42.805,6.029,13.3048,4.60039,2469.876,2020-1-24T04:06:36Z
2020-01-24T02:09:06Z,42.805,6.029,13.3000,4.59999,2469.867,2020-1-24T04:09:40Z
2020-01-24T02:12:10Z,42.805,6.029,13.2993,4.60061,2469.923,2020-1-24T04:12:43Z
2020-01-24T02:15:13Z,42.805,6.029,13.2987,4.60001,2469.83,2020-1-24T04:15:46Z
2020-01-24T02:18:16Z,42.805,6.029,13.3004,4.60029,2469.914,2020-1-24T04:18:49Z
2020-01-24T02:21:19Z,42.805,6.029,13.3011,4.59999,2469.876,2020-1-24T04:21:52Z
2020-01-24T02:24:22Z,42.805,6.029,13.3007,4.60020,2469.867,2020-1-24T04:24:56Z
2020-01-24T02:27:26Z,42.805,6.029,13.3002,4.60019,2469.853,2020-1-24T04:27:59Z
2020-01-24T02:30:29Z,42.805,6.029,13.3003,4.60040,2469.9,2020-1-24T04:31:02Z
2020-01-24T02:33:32Z,42.805,6.029,13.3019,4.60056,2469.923,2020-1-24T04:34:05Z
2020-01-24T02:36:35Z,42.805,6.029,13.3036,4.60051,2469.937,2020-1-24T04:37:08Z
2020-01-24T02:39:39Z,42.805,6.029,13.3039,4.60069,2469.89,2020-1-24T04:40:12Z
2020-01-24T02:42:42Z,42.805,6.029,13.3040,4.60074,2469.89,2020-1-24T04:43:15Z
2020-01-24T02:45:45Z,42.805,6.029,13.3031,4.60050,2469.876,2020-1-24T04:46:18Z
2020-01-24T02:48:48Z,42.805,6.029,13.3024,4.60022,2469.9,2020-1-24T04:49:21Z
2020-01-24T02:51:51Z,42.805,6.029,13.3004,4.60093,2469.937,2020-1-24T04:52:24Z
2020-01-24T02:54:55Z,42.805,6.029,13.3043,4.60009,2469.937,2020-1-24T04:55:28Z
2020-01-24T02:57:58Z,42.805,6.029,13.2992,4.60058,2469.89,2020-1-24T04:58:31Z
2020-01-24T03:01:01Z,42.805,6.029,13.3029,4.60044,2469.9,2020-1-24T05:01:34Z
2020-01-24T03:04:04Z,42.805,6.029,13.3032,4.60038,2469.937,2020-1-24T05:04:37Z
2020-01-24T03:07:07Z,42.805,6.029,13.3016,4.59981,2469.923,2020-1-24T05:07:40Z
2020-01-24T03:10:10Z,42.805,6.029,13.3022,4.60043,2469.914,2020-1-24T05:10:44Z
2020-01-24T03:13:14Z,42.805,6.029,13.3017,4.60028,2469.9,2020-1-24T05:13:47Z
2020-01-24T03:16:17Z,42.805,6.029,13.3002,4.60034,2469.937,2020-1-24T05:16:50Z
2020-01-24T03:19:20Z,42.805,6.029,13.3011,4.60040,2469.947,2020-1-24T05:19:53Z
2020-01-24T03:22:23Z,42.805,6.029,13.3009,4.60046,2469.947,2020-1-24T05:22:56Z
2020-01-24T03:25:26Z,42.805,6.029,13.2994,4.60048,2469.937,2020-1-24T05:26:00Z
2020-01-24T03:28:30Z,42.805,6.029,13.3036,4.60085,2469.937,2020-1-24T05:29:03Z
2020-01-24T03:31:33Z,42.805,6.029,13.3046,4.60044,2469.923,2020-1-24T05:32:06Z
2020-01-24T03:34:36Z,42.805,6.029,13.3039,4.60044,2469.923,2020-1-24T05:35:09Z
2020-01-24T03:37:39Z,42.805,6.029,13.2985,4.60021,2469.947,2020-1-24T05:38:12Z
2020-01-24T03:40:42Z,42.805,6.029,13.3034,4.60006,2469.923,2020-1-24T05:41:16Z
2020-01-24T03:43:46Z,42.805,6.029,13.3031,4.60018,2469.97,2020-1-24T05:44:19Z
2020-01-24T03:46:49Z,42.805,6.029,13.3000,4.60049,2469.96,2020-1-24T05:47:22Z
2020-01-24T03:49:52Z,42.805,6.029,13.3040,4.60049,2469.984,2020-1-24T05:50:25Z
2020-01-24T03:52:55Z,42.805,6.029,13.3045,4.60039,2469.96,2020-1-24T05:53:28Z
2020-01-24T03:55:58Z,42.805,6.029,13.3026,4.60031,2469.923,2020-1-24T05:56:32Z
2020-01-24T03:59:02Z,42.805,6.029,13.3029,4.60044,2469.984,2020-1-24T05:59:35Z
2020-01-24T04:02:05Z,42.805,6.029,13.3019,4.60038,2469.97,2020-1-24T06:02:38Z
2020-01-24T04:05:08Z,42.805,6.029,13.3015,4.60028,2469.984,2020-1-24T06:05:41Z
2020-01-24T04:08:11Z,42.805,6.029,13.2985,4.60009,2469.993,2020-1-24T06:08:44Z
2020-01-24T04:11:14Z,42.805,6.029,13.3019,4.60033,2470.007,2020-1-24T06:11:47Z
2020-01-24T04:14:17Z,42.805,6.029,13.3018,4.60036,2469.947,2020-1-24T06:14:51Z
2020-01-24T04:17:21Z,42.805,6.029,13.3015,4.60014,2470.007,2020-1-24T06:17:54Z
2020-01-24T04:20:24Z,42.805,6.029,13.3047,4.59988,2470.007,2020-1-24T06:20:57Z
2020-01-24T04:23:27Z,42.805,6.029,13.3024,4.60023,2470.007,2020-1-24T06:24:00Z
2020-01-24T04:26:30Z,42.805,6.029,13.3041,4.60027,2469.993,2020-1-24T06:27:03Z
2020-01-24T04:29:33Z,42.805,6.029,13.3051,4.60028,2470.007,2020-1-24T06:30:07Z
2020-01-24T04:32:37Z,42.805,6.029,13.3021,4.60018,2470.007,2020-1-24T06:33:10Z
2020-01-24T04:35:40Z,42.805,6.029,13.3011,4.60009,2470.007,2020-1-24T06:36:13Z
2020-01-24T04:38:43Z,42.805,6.029,13.3011,4.60037,2470.03,2020-1-24T06:39:16Z
2020-01-24T04:41:46Z,42.805,6.029,13.3014,4.60052,2470.03,2020-1-24T06:42:19Z
2020-01-24T04:44:49Z,42.805,6.029,13.3021,4.60033,2470.007,2020-1-24T06:45:23Z
2020-01-24T04:47:53Z,42.805,6.029,13.3015,4.60049,2470.03,2020-1-24T06:48:26Z
2020-01-24T04:50:56Z,42.805,6.029,13.3024,4.60049,2470.03,2020-1-24T06:51:29Z
2020-01-24T04:53:59Z,42.805,6.029,13.2991,4.60020,2470.053,2020-1-24T06:54:32Z
2020-01-24T04:57:02Z,42.805,6.029,13.2991,4.60004,2470.017,2020-1-24T06:57:35Z
2020-01-24T05:00:05Z,42.805,6.029,13.2998,4.60023,2470.03,2020-1-24T07:00:39Z
2020-01-24T05:03:09Z,42.805,6.029,13.3024,4.60035,2470.053,2020-1-24T07:03:42Z
2020-01-24T05:06:12Z,42.805,6.029,13.3034,4.60002,2470.053,2020-1-24T07:06:45Z
2020-01-24T05:09:15Z,42.805,6.029,13.2990,4.60006,2470.04,2020-1-24T07:09:48Z
2020-01-24T05:12:18Z,42.805,6.029,13.2996,4.59993,2470.077,2020-1-24T07:12:51Z
2020-01-24T05:15:21Z,42.805,6.029,13.3000,4.60016,2470.04,2020-1-24T07:15:54Z
2020-01-24T05:18:25Z,42.805,6.029,13.3032,4.59986,2470.077,2020-1-24T07:18:58Z
2020-01-24T05:21:28Z,42.805,6.029,13.3019,4.59991,2470.053,2020-1-24T07:22:01Z
2020-01-24T05:24:31Z,42.805,6.029,13.2996,4.60013,2470.077,2020-1-24T07:25:04Z
2020-01-24T05:27:34Z,42.805,6.029,13.3014,4.59998,2470.077,2020-1-24T07:28:07Z
2020-01-24T05:30:37Z,42.805,6.029,13.2999,4.60007,2470.1,2020-1-24T07:31:10Z
2020-01-24T05:33:40Z,42.805,6.029,13.3005,4.60018,2470.04,2020-1-24T07:34:14Z
2020-01-24T05:36:44Z,42.805,6.029,13.3011,4.59996,2470.1,2020-1-24T07:37:17Z
2020-01-24T05:39:47Z,42.805,6.029,13.3009,4.60026,2470.053,2020-1-24T07:40:20Z
2020-01-24T05:42:50Z,42.805,6.029,13.3000,4.60021,2470.1,2020-1-24T07:43:23Z
2020-01-24T05:45:53Z,42.805,6.029,13.3006,4.60003,2470.077,2020-1-24T07:46:26Z
2020-01-24T05:48:57Z,42.805,6.029,13.3014,4.60005,2470.077,2020-1-24T07:49:30Z
2020-01-24T05:52:00Z,42.805,6.029,13.2991,4.60029,2470.1,2020-1-24T07:52:33Z
2020-01-24T05:55:03Z,42.805,6.029,13.3020,4.59999,2470.1,2020-1-24T07:55:36Z
2020-01-24T05:58:06Z,42.805,6.029,13.3013,4.59984,2470.087,2020-1-24T07:58:39Z
2020-01-24T06:01:09Z,42.805,6.029,13.2996,4.60015,2470.1,2020-1-24T08:01:42Z
2020-01-24T06:04:12Z,42.805,6.029,13.2991,4.60056,2470.077,2020-1-24T08:04:46Z
2020-01-24T06:07:16Z,42.805,6.029,13.3014,4.60036,2470.11,2020-1-24T08:07:49Z
2020-01-24T06:10:19Z,42.805,6.029,13.3069,4.60030,2470.1,2020-1-24T08:10:52Z
2020-01-24T06:13:22Z,42.805,6.029,13.3042,4.59997,2470.087,2020-1-24T08:13:55Z
2020-01-24T06:16:25Z,42.805,6.029,13.3034,4.60019,2470.124,2020-1-24T08:16:58Z
2020-01-24T06:19:28Z,42.805,6.029,13.3034,4.60000,2470.1,2020-1-24T08:20:01Z
2020-01-24T06:22:31Z,42.805,6.029,13.3022,4.60016,2470.1,2020-1-24T08:23:05Z
2020-01-24T06:25:35Z,42.805,6.029,13.3047,4.60014,2470.11,2020-1-24T08:26:08Z
2020-01-24T06:28:38Z,42.805,6.029,13.3070,4.59993,2470.087,2020-1-24T08:29:11Z
2020-01-24T06:31:41Z,42.805,6.029,13.3018,4.60006,2470.1,2020-1-24T08:32:14Z
2020-01-24T06:34:44Z,42.805,6.029,13.3024,4.60048,2470.124,2020-1-24T08:35:17Z
2020-01-24T06:37:47Z,42.805,6.029,13.3016,4.60026,2470.147,2020-1-24T08:38:21Z
2020-01-24T06:40:51Z,42.805,6.029,13.2993,4.60059,2470.124,2020-1-24T08:41:24Z
2020-01-24T06:43:54Z,42.805,6.029,13.3034,4.60032,2470.11,2020-1-24T08:44:27Z
2020-01-24T06:46:57Z,42.805,6.029,13.3024,4.60047,2470.124,2020-1-24T08:47:30Z
2020-01-24T06:50:00Z,42.805,6.029,13.3058,4.60019,2470.147,2020-1-24T08:50:33Z
2020-01-24T06:53:03Z,42.805,6.029,13.3055,4.60042,2470.124,2020-1-24T08:53:37Z
2020-01-24T06:56:07Z,42.805,6.029,13.3025,4.60029,2470.124,2020-1-24T08:56:40Z
2020-01-24T06:59:10Z,42.805,6.029,13.3039,4.60020,2470.124,2020-1-24T08:59:43Z
2020-01-24T07:02:13Z,42.805,6.029,13.3051,4.60020,2470.087,2020-1-24T09:02:46Z
2020-01-24T07:05:16Z,42.805,6.029,13.3044,4.60044,2470.11,2020-1-24T09:05:49Z
2020-01-24T07:08:19Z,42.805,6.029,13.3049,4.60064,2470.133,2020-1-24T09:08:53Z
2020-01-24T07:11:23Z,42.805,6.029,13.3019,4.60022,2470.171,2020-1-24T09:11:56Z
2020-01-24T07:14:26Z,42.805,6.029,13.3044,4.60077,2470.147,2020-1-24T09:14:59Z
2020-01-24T07:17:29Z,42.805,6.029,13.3031,4.60044,2470.11,2020-1-24T09:18:02Z
2020-01-24T07:20:32Z,42.805,6.029,13.2991,4.60045,2470.133,2020-1-24T09:21:05Z
2020-01-24T07:23:35Z,42.805,6.029,13.3018,4.60046,2470.11,2020-1-24T09:24:08Z
2020-01-24T07:26:38Z,42.805,6.029,13.3006,4.60056,2470.11,2020-1-24T09:27:12Z
2020-01-24T07:29:42Z,42.805,6.029,13.2991,4.60063,2470.124,2020-1-24T09:30:15Z
2020-01-24T07:32:45Z,42.805,6.029,13.3028,4.60053,2470.11,2020-1-24T09:33:18Z
2020-01-24T07:35:48Z,42.805,6.029,13.3007,4.60041,2470.147,2020-1-24T09:36:21Z
2020-01-24T07:38:51Z,42.805,6.029,13.3009,4.60102,2470.147,2020-1-24T09:39:24Z
2020-01-24T07:41:54Z,42.805,6.029,13.2993,4.60114,2470.11,2020-1-24T09:42:28Z
2020-01-24T07:44:58Z,42.805,6.029,13.2986,4.60091,2470.133,2020-1-24T09:45:31Z
2020-01-24T07:48:01Z,42.805,6.029,13.3000,4.60077,2470.133,2020-1-24T09:48:34Z
2020-01-24T07:51:04Z,42.805,6.029,13.3000,4.60058,2470.147,2020-1-24T09:51:37Z
2020-01-24T07:54:07Z,42.805,6.029,13.3001,4.60044,2470.087,2020-1-24T09:54:40Z
2020-01-24T07:57:10Z,42.805,6.029,13.2980,4.60084,2470.11,2020-1-24T09:57:43Z
2020-01-24T08:00:14Z,42.805,6.029,13.2986,4.60087,2470.147,2020-1-24T10:00:47Z
2020-01-24T08:03:17Z,42.805,6.029,13.2990,4.60074,2470.11,2020-1-24T10:03:50Z
2020-01-24T08:06:20Z,42.805,6.029,13.2979,4.60046,2470.1,2020-1-24T10:06:53Z
2020-01-24T08:09:23Z,42.805,6.029,13.2986,4.60034,2470.133,2020-1-24T10:09:56Z
2020-01-24T08:12:26Z,42.805,6.029,13.2986,4.60059,2470.11,2020-1-24T10:12:59Z
2020-01-24T08:15:29Z,42.805,6.029,13.2983,4.60053,2470.133,2020-1-24T10:16:03Z
2020-01-24T08:18:33Z,42.805,6.029,13.2988,4.60049,2470.147,2020-1-24T10:19:06Z
2020-01-24T08:21:36Z,42.805,6.029,13.2998,4.60087,2470.124,2020-1-24T10:22:09Z
2020-01-24T08:24:39Z,42.805,6.029,13.3004,4.60070,2470.147,2020-1-24T10:25:12Z
2020-01-24T08:27:42Z,42.805,6.029,13.2996,4.60050,2470.11,2020-1-24T10:28:15Z
2020-01-24T08:30:45Z,42.805,6.029,13.2994,4.60072,2470.133,2020-1-24T10:31:19Z
2020-01-24T08:33:49Z,42.805,6.029,13.2986,4.60054,2470.11,2020-1-24T10:34:22Z
2020-01-24T08:36:52Z,42.805,6.029,13.2985,4.60042,2470.11,2020-1-24T10:37:25Z
2020-01-24T08:39:55Z,42.805,6.029,13.2989,4.60033,2470.11,2020-1-24T10:40:28Z
2020-01-24T08:42:58Z,42.805,6.029,13.2987,4.60051,2470.124,2020-1-24T10:43:31Z
2020-01-24T08:46:01Z,42.805,6.029,13.2996,4.60043,2470.147,2020-1-24T10:46:34Z
2020-01-24T08:49:04Z,42.805,6.029,13.2994,4.60080,2470.1,2020-1-24T10:49:38Z
2020-01-24T08:52:08Z,42.805,6.029,13.3005,4.60070,2470.1,2020-1-24T10:52:41Z
2020-01-24T08:55:11Z,42.805,6.029,13.2990,4.60077,2470.11,2020-1-24T10:55:44Z
2020-01-24T08:58:14Z,42.805,6.029,13.2989,4.60032,2470.124,2020-1-24T10:58:47Z
2020-01-24T09:01:17Z,42.805,6.029,13.2983,4.60064,2470.087,2020-1-24T11:01:50Z
2020-01-24T09:04:20Z,42.805,6.029,13.2984,4.60049,2470.11,2020-1-24T11:04:54Z
2020-01-24T09:07:24Z,42.805,6.029,13.2986,4.60052,2470.124,2020-1-24T11:07:57Z
2020-01-24T09:10:27Z,42.805,6.029,13.3004,4.60068,2470.087,2020-1-24T11:11:00Z
2020-01-24T09:13:30Z,42.805,6.029,13.2979,4.60040,2470.1,2020-1-24T11:14:03Z
2020-01-24T09:16:33Z,42.805,6.029,13.2983,4.60023,2470.1,2020-1-24T11:17:07Z
2020-01-24T09:19:37Z,42.805,6.029,13.2988,4.60011,2470.147,2020-1-24T11:20:10Z
2020-01-24T09:22:40Z,42.805,6.029,13.2986,4.60021,2470.11,2020-1-24T11:23:13Z
2020-01-24T09:25:43Z,42.805,6.029,13.2990,4.60044,2470.124,2020-1-24T11:26:16Z
2020-01-24T09:28:46Z,42.805,6.029,13.2992,4.60051,2470.11,2020-1-24T11:29:19Z
2020-01-24T09:31:49Z,42.805,6.029,13.2990,4.60026,2470.087,2020-1-24T11:32:22Z
2020-01-24T09:34:53Z,42.805,6.029,13.2980,4.60043,2470.063,2020-1-24T11:35:26Z
2020-01-24T09:37:56Z,42.805,6.029,13.2989,4.60039,2470.11,2020-1-24T11:38:29Z
2020-01-24T09:40:59Z,42.805,6.029,13.2985,4.60060,2470.087,2020-1-24T11:41:32Z
2020-01-24T09:44:02Z,42.805,6.029,13.2989,4.60062,2470.1,2020-1-24T11:44:35Z
2020-01-24T09:47:05Z,42.805,6.029,13.2980,4.60036,2470.11,2020-1-24T11:47:38Z
2020-01-24T09:50:08Z,42.805,6.029,13.2980,4.60056,2470.1,2020-1-24T11:50:42Z
2020-01-24T09:53:12Z,42.805,6.029,13.2980,4.60056,2470.124,2020-1-24T11:53:45Z
2020-01-24T09:56:15Z,42.805,6.029,13.3004,4.60039,2470.1,2020-1-24T11:56:48Z
2020-01-24T09:59:18Z,42.805,6.029,13.2979,4.60025,2470.087,2020-1-24T11:59:51Z
2020-01-24T10:02:21Z,42.805,6.029,13.2974,4.60014,2470.1,2020-1-24T12:02:54Z
2020-01-24T10:05:24Z,42.805,6.029,13.2986,4.60039,2470.063,2020-1-24T12:05:58Z
2020-01-24T10:08:28Z,42.805,6.029,13.2977,4.60024,2470.063,2020-1-24T12:09:01Z
2020-01-24T10:11:31Z,42.805,6.029,13.2983,4.60019,2470.077,2020-1-24T12:12:04Z
2020-01-24T10:14:34Z,42.805,6.029,13.2990,4.60036,2470.1,2020-1-24T12:15:07Z
2020-01-24T10:17:37Z,42.805,6.029,13.2986,4.60038,2470.077,2020-1-24T12:18:10Z
2020-01-24T10:20:40Z,42.805,6.029,13.2978,4.60032,2470.1,2020-1-24T12:21:14Z
2020-01-24T10:23:44Z,42.805,6.029,13.2983,4.60029,2470.053,2020-1-24T12:24:17Z
2020-01-24T10:26:47Z,42.805,6.029,13.2991,4.60013,2470.077,2020-1-24T12:27:20Z
2020-01-24T10:29:50Z,42.805,6.029,13.2977,4.60017,2470.063,2020-1-24T12:30:23Z
2020-01-24T10:32:53Z,42.805,6.029,13.2979,4.60009,2470.053,2020-1-24T12:33:26Z
2020-01-24T10:35:57Z,42.805,6.029,13.2975,4.60041,2470.063,2020-1-24T12:36:30Z
2020-01-24T10:39:00Z,42.805,6.029,13.2983,4.60032,2470.03,2020-1-24T12:39:33Z
2020-01-24T10:42:03Z,42.805,6.029,13.2990,4.60000,2470.063,2020-1-24T12:42:36Z
2020-01-24T10:45:06Z,42.805,6.029,13.2999,4.60024,2470.077,2020-1-24T12:45:39Z
2020-01-24T10:48:09Z,42.805,6.029,13.2995,4.60031,2470.04,2020-1-24T12:48:43Z
2020-01-24T10:51:13Z,42.805,6.029,13.2978,4.60006,2470.053,2020-1-24T12:51:46Z
2020-01-24T10:54:16Z,42.805,6.029,13.2985,4.60001,2470.04,2020-1-24T12:54:49Z
2020-01-24T10:57:19Z,42.805,6.029,13.2975,4.60009,2470.04,2020-1-24T12:57:52Z
2020-01-24T11:00:22Z,42.805,6.029,13.2982,4.60009,2470.053,2020-1-24T13:00:56Z
2020-01-24T11:03:26Z,42.805,6.029,13.2982,4.60019,2470.04,2020-1-24T13:03:59Z
2020-01-24T11:06:29Z,42.805,6.029,13.2977,4.60005,2470.04,2020-1-24T13:07:02Z
2020-01-24T11:09:32Z,42.805,6.029,13.2983,4.60001,2470.053,2020-1-24T13:10:05Z
2020-01-24T11:12:35Z,42.805,6.029,13.2977,4.60007,2470.077,2020-1-24T13:13:08Z
2020-01-24T11:15:38Z,42.805,6.029,13.2976,4.60007,2470.04,2020-1-24T13:16:12Z
2020-01-24T11:18:42Z,42.805,6.029,13.2983,4.60009,2470.04,2020-1-24T13:19:15Z
2020-01-24T11:21:45Z,42.805,6.029,13.2979,4.60016,2470.04,2020-1-24T13:22:18Z
2020-01-24T11:24:48Z,42.805,6.029,13.2973,4.60008,2470.053,2020-1-24T13:25:21Z
2020-01-24T11:27:51Z,42.805,6.029,13.2977,4.60005,2470.04,2020-1-24T13:28:24Z
2020-01-24T11:30:54Z,42.805,6.029,13.2974,4.60006,2470.03,2020-1-24T13:31:28Z
2020-01-24T11:33:58Z,42.805,6.029,13.2983,4.60000,2470.053,2020-1-24T13:34:31Z
2020-01-24T11:37:01Z,42.805,6.029,13.2983,4.60001,2470.053,2020-1-24T13:37:34Z
2020-01-24T11:40:04Z,42.805,6.029,13.2973,4.60007,2470.03,2020-1-24T13:40:37Z
2020-01-24T11:43:07Z,42.805,6.029,13.2979,4.59993,2470.03,2020-1-24T13:43:40Z
2020-01-24T11:46:10Z,42.805,6.029,13.2981,4.59995,2470.017,2020-1-24T13:46:43Z
2020-01-24T11:49:13Z,42.805,6.029,13.2979,4.60016,2469.984,2020-1-24T13:49:47Z
2020-01-24T11:52:17Z,42.805,6.029,13.2980,4.59999,2470.03,2020-1-24T13:52:50Z
2020-01-24T11:55:20Z,42.805,6.029,13.2973,4.60009,2469.993,2020-1-24T13:55:53Z
2020-01-24T11:58:23Z,42.805,6.029,13.2971,4.59998,2470.017,2020-1-24T13:58:56Z
2020-01-24T12:01:26Z,42.805,6.029,13.2980,4.60007,2469.993,2020-1-24T14:01:59Z
2020-01-24T12:04:29Z,42.805,6.029,13.2974,4.60002,2470.007,2020-1-24T14:05:03Z
2020-01-24T12:07:33Z,42.805,6.029,13.2979,4.60018,2469.993,2020-1-24T14:08:06Z
2020-01-24T12:10:36Z,42.805,6.029,13.2975,4.60016,2469.993,2020-1-24T14:11:09Z
2020-01-24T12:13:39Z,42.805,6.029,13.2979,4.60033,2470.007,2020-1-24T14:14:12Z
2020-01-24T12:16:42Z,42.805,6.029,13.2982,4.60036,2469.993,2020-1-24T14:17:15Z
2020-01-24T12:19:45Z,42.805,6.029,13.2991,4.60019,2469.96,2020-1-24T14:20:19Z
2020-01-24T12:22:48Z,42.805,6.029,13.2982,4.60019,2469.993,2020-1-24T14:23:22Z
2020-01-24T12:25:52Z,42.805,6.029,13.2976,4.59980,2469.993,2020-1-24T14:26:25Z
2020-01-24T12:28:55Z,42.805,6.029,13.2986,4.59997,2470.007,2020-1-24T14:29:28Z
2020-01-24T12:31:58Z,42.805,6.029,13.2977,4.59995,2469.984,2020-1-24T14:32:31Z
2020-01-24T12:35:01Z,42.805,6.029,13.2982,4.60014,2469.97,2020-1-24T14:35:34Z
2020-01-24T12:38:04Z,42.805,6.029,13.2978,4.60014,2469.984,2020-1-24T14:38:38Z
2020-01-24T12:41:08Z,42.805,6.029,13.2979,4.60003,2469.947,2020-1-24T14:41:41Z
2020-01-24T12:44:11Z,42.805,6.029,13.2981,4.60019,2469.984,2020-1-24T14:44:44Z
2020-01-24T12:47:14Z,42.805,6.029,13.2974,4.60019,2470.007,2020-1-24T14:47:47Z
2020-01-24T12:50:17Z,42.805,6.029,13.2976,4.60021,2469.96,2020-1-24T14:50:50Z
2020-01-24T12:53:20Z,42.805,6.029,13.2975,4.60017,2469.97,2020-1-24T14:53:54Z
2020-01-24T12:56:24Z,42.805,6.029,13.2974,4.60018,2469.97,2020-1-24T14:56:57Z
2020-01-24T12:59:27Z,42.805,6.029,13.2975,4.60024,2469.97,2020-1-24T15:00:00Z
2020-01-24T13:02:30Z,42.805,6.029,13.2983,4.60016,2469.947,2020-1-24T15:03:03Z
2020-01-24T13:05:33Z,42.805,6.029,13.2980,4.60024,2469.947,2020-1-24T15:06:06Z
2020-01-24T13:08:36Z,42.805,6.029,13.2982,4.60017,2469.984,2020-1-24T15:09:10Z
2020-01-24T13:11:39Z,42.805,6.029,13.2983,4.60003,2469.923,2020-1-24T15:12:13Z
2020-01-24T13:14:43Z,42.805,6.029,13.2976,4.60008,2469.947,2020-1-24T15:15:16Z
2020-01-24T13:17:46Z,42.805,6.029,13.2976,4.60009,2469.933,2020-1-24T15:18:19Z
2020-01-24T13:20:49Z,42.805,6.029,13.2988,4.60019,2469.96,2020-1-24T15:21:22Z
2020-01-24T13:23:52Z,42.805,6.029,13.2979,4.60031,2469.947,2020-1-24T15:24:25Z
2020-01-24T13:26:55Z,42.805,6.029,13.2978,4.60018,2469.923,2020-1-24T15:27:29Z
2020-01-24T13:29:59Z,42.805,6.029,13.3000,4.60034,2469.947,2020-1-24T15:30:32Z
2020-01-24T13:33:02Z,42.805,6.029,13.2979,4.60022,2469.923,2020-1-24T15:33:35Z
2020-01-24T13:36:05Z,42.805,6.029,13.2996,4.60021,2469.937,2020-1-24T15:36:38Z
2020-01-24T13:39:08Z,42.805,6.029,13.2988,4.60028,2469.937,2020-1-24T15:39:41Z
2020-01-24T13:42:11Z,42.805,6.029,13.2986,4.60039,2469.937,2020-1-24T15:42:45Z
2020-01-24T13:45:15Z,42.805,6.029,13.2988,4.60021,2469.923,2020-1-24T15:45:48Z
2020-01-24T13:48:18Z,42.805,6.029,13.2983,4.60019,2469.947,2020-1-24T15:48:51Z
2020-01-24T13:51:21Z,42.805,6.029,13.2983,4.60025,2469.923,2020-1-24T15:51:54Z
2020-01-24T13:54:24Z,42.805,6.029,13.2989,4.60021,2469.937,2020-1-24T15:54:57Z
2020-01-24T13:57:27Z,42.805,6.029,13.2986,4.60026,2469.923,2020-1-24T15:58:01Z
2020-01-24T14:00:31Z,42.805,6.029,13.2976,4.60025,2469.923,2020-1-24T16:01:04Z
2020-01-24T14:03:34Z,42.805,6.029,13.2991,4.60041,2469.923,2020-1-24T16:04:07Z
2020-01-24T14:06:37Z,42.805,6.029,13.2981,4.60014,2469.937,2020-1-24T16:07:10Z
2020-01-24T14:09:40Z,42.805,6.029,13.2986,4.60005,2469.923,2020-1-24T16:10:13Z
2020-01-24T14:12:43Z,42.805,6.029,13.2981,4.60016,2469.96,2020-1-24T16:13:17Z
2020-01-24T14:15:47Z,42.805,6.029,13.2980,4.60007,2469.914,2020-1-24T16:16:20Z
2020-01-24T14:18:50Z,42.805,6.029,13.2983,4.60016,2469.947,2020-1-24T16:19:23Z
2020-01-24T14:21:53Z,42.805,6.029,13.2983,4.60049,2469.914,2020-1-24T16:22:26Z
2020-01-24T14:24:56Z,42.805,6.029,13.2987,4.60037,2469.89,2020-1-24T16:25:29Z
2020-01-24T14:27:59Z,42.805,6.029,13.2976,4.60021,2469.914,2020-1-24T16:28:33Z
2020-01-24T14:31:03Z,42.805,6.029,13.2980,4.60026,2469.947,2020-1-24T16:31:36Z
2020-01-24T14:34:06Z,42.805,6.029,13.2987,4.60049,2469.937,2020-1-24T16:34:39Z
2020-01-24T14:37:09Z,42.805,6.029,13.2984,4.60029,2469.96,2020-1-24T16:37:42Z
2020-01-24T14:40:12Z,42.805,6.029,13.2983,4.60026,2469.9,2020-1-24T16:40:46Z
2020-01-24T14:43:16Z,42.805,6.029,13.2977,4.60047,2469.923,2020-1-24T16:43:49Z
2020-01-24T14:46:19Z,42.805,6.029,13.2978,4.60019,2469.923,2020-1-24T16:46:52Z
2020-01-24T14:49:22Z,42.805,6.029,13.2980,4.60053,2469.923,2020-1-24T16:49:55Z
2020-01-24T14:52:25Z,42.805,6.029,13.2981,4.60040,2469.923,2020-1-24T16:52:58Z
2020-01-24T14:55:28Z,42.805,6.029,13.2985,4.60037,2469.914,2020-1-24T16:56:02Z
2020-01-24T14:58:32Z,42.805,6.029,13.3000,4.60062,2469.937,2020-1-24T16:59:05Z
2020-01-24T15:01:35Z,42.805,6.029,13.3005,4.60055,2469.923,2020-1-24T17:02:08Z
2020-01-24T15:04:38Z,42.805,6.029,13.2998,4.60025,2469.947,2020-1-24T17:05:11Z
2020-01-24T15:07:41Z,42.805,6.029,13.2984,4.60038,2469.9,2020-1-24T17:08:14Z
2020-01-24T15:10:44Z,42.805,6.029,13.2993,4.60044,2469.937,2020-1-24T17:11:18Z
2020-01-24T15:13:48Z,42.805,6.029,13.2989,4.60032,2469.923,2020-1-24T17:14:21Z